This demonstration page uses our WeatherBlox Daily Observations layout. Learn more.

38.80484, -77.04692

Hourly Observations for August 13, 2020

Temp ( °F °C ) Dew Point ( °F °C ) Humidity (%) Winds ( mph kmh ) Pressure ( in mb ) Visibility ( mi km ) Precip ( " mm )
12:19 am 00:19 Partly Cloudy 77 25 72 22.2 85 85 NNE 3 6 30.06 1018 10 16.0934 0 0
12:52 am 00:52 Partly Cloudy 77 25 73 22.8 88 88 NE 5 7 30.05 1018 10 16.0934 0 0
1:52 am 01:52 Mostly Cloudy 77 25 73 22.8 88 88 NE 6 9 30.04 1017 10 16.0934 0 0
2:52 am 02:52 Mostly Cloudy 76 24.4 73 22.8 91 91 NNE 7 11 30.04 1017 10 16.0934 0 0
3:13 am 03:13 Mostly Cloudy 76 24.4 73 22.8 91 91 ENE 6 9 30.05 1018 10 16.0934 0 0
3:52 am 03:52 Mostly Cloudy 76 24.4 73 22.8 91 91 E 5 7 30.04 1017 10 16.0934 0 0
3:55 am 03:55 Mostly Cloudy 76 24.4 73 22.8 91 91 E 5 7 30.05 1018 10 16.0934 0 0
4:52 am 04:52 Cloudy 77 25 73 22.8 88 88 NE 5 7 30.05 1018 10 16.0934 0 0
4:57 am 04:57 Mostly Cloudy 77 25 73 22.8 88 88 NNE 6 9 30.05 1018 10 16.0934 0 0
5:22 am 05:22 Cloudy 77 25 74 23.3 90 90 NE 5 7 30.05 1018 10 16.0934 0 0
5:30 am 05:30 Cloudy 77 25 74 23.3 90 90 NE 6 9 30.05 1018 10 16.0934 0 0
5:52 am 05:52 Cloudy 77 25 74 23.3 90 90 E 5 7 30.06 1018 10 16.0934 0 0
6:07 am 06:07 Cloudy 77 25 74 23.3 90 90 E 5 7 30.06 1018 10 16.0934 0 0
6:39 am 06:39 Cloudy with Light Rain 77 25 74 23.3 90 90 ENE 5 7 30.07 1018 10 16.0934 0.001 0.001
6:52 am 06:52 Cloudy with Heavy Rain 77 25 74 23.3 90 90 NE 6 9 30.07 1018 5 8.0467 0.03 0.762
7:00 am 07:00 Cloudy with Rain 77 25 74 23.3 90 90 NE 7 11 30.07 1018 2.5 4.02335 0.05 1.27
7:17 am 07:17 Cloudy with Light Rain 77 25 74 23.3 90 90 NNE 8 13 30.07 1018 4 6.43736 0.08 2.032
7:52 am 07:52 Cloudy 77 25 74 23.3 90 90 N 5 7 30.08 1019 7 11.26538 0.08 2.032
8:02 am 08:02 Cloudy 77 25 74 23.3 90 90 NNE 6 9 30.08 1019 7 11.26538 0 0
8:26 am 08:26 Cloudy with Light Rain 77 25 74 23.3 90 90 NNE 8 13 30.07 1018 4 6.43736 0.01 0.254
8:49 am 08:49 Cloudy with Nearby Thunderstorms 77 25 75 24 94 94 NNE 8 13 30.07 1018 2.5 4.02335 0.03 0.762
8:52 am 08:52 Cloudy with Nearby Thunderstorms 77 25 75 23.9 94 94 NNE 9 15 30.07 1018 2.5 4.02335 0.04 1.016
8:59 am 08:59 Cloudy with Nearby Thunderstorms 76 24.4 74 23.3 94 94 NNE 9 15 30.08 1019 3 4.82802 0.01 0.254
9:11 am 09:11 Cloudy with Thunderstorms 76 24.4 74 23.3 94 94 E 8 13 30.09 1019 4 6.43736 0.03 0.762
9:25 am 09:25 Cloudy with Thunderstorms 77 25 74 23.3 90 90 ESE 8 13 30.09 1019 5 8.0467 0.05 1.27
9:40 am 09:40 Cloudy with Thunderstorms 76 24.4 73 22.8 91 91 SE 10 17 30.11 1020 2 3.21868 0.09 2.286
9:52 am 09:52 Cloudy with Thunderstorms 76 24.4 73 22.8 91 91 ESE 8 13 30.1 1019 2.5 4.02335 0.12 3.048
10:04 am 10:04 Cloudy with Heavy Rain 75 23.9 73 22.8 94 94 ESE 9 15 30.1 1019 2.5 4.02335 0.06 1.524
10:08 am 10:08 Cloudy with Rain 74 23.3 72 22.2 94 94 ESE 8 13 30.1 1019 3 4.82802 0.07 1.778
10:21 am 10:21 Cloudy with Rain 74 23.3 71 21.7 91 91 SSW 3 6 30.1 1019 3 4.82802 0.11 2.794
10:36 am 10:36 Cloudy with Rain 74 23.3 72 22.2 94 94 Calm 30.1 1019 3 4.82802 0.17 4.318
10:52 am 10:52 Cloudy with Heavy Rain 75 23.9 73 22.8 94 94 E 5 7 30.09 1019 3 4.82802 0.23 5.842
11:52 am 11:52 Cloudy with Light Rain 77 25 72 22.2 85 85 NNE 6 9 30.08 1019 10 16.0934 0.09 2.286
12:52 pm 12:52 Cloudy 80 26.7 73 22.8 79 79 N 6 9 30.07 1018 10 16.0934 0.001 0.001
1:52 pm 13:52 Cloudy 81 27.2 73 22.8 77 77 ENE 6 9 30.06 1018 10 16.0934 0 0
2:52 pm 14:52 Cloudy 82 27.8 73 22.8 74 74 NE 6 9 30.05 1018 10 16.0934 0 0
3:52 pm 15:52 Cloudy 83 28.3 74 23.3 74 74 NE 9 15 30.03 1017 10 16.0934 0 0
4:52 pm 16:52 Mostly Cloudy 83 28.3 73 22.8 72 72 E 8 13 30.01 1016 10 16.0934 0 0
5:47 pm 17:47 Mostly Cloudy 82 28 73 23 74 74 E 9 15 30.01 1016 10 16.0934 0 0
5:52 pm 17:52 Mostly Cloudy 83 28.3 73 22.8 72 72 E 9 15 30.01 1016 10 16.0934 0 0
5:56 pm 17:56 Mostly Cloudy 83 28.3 73 22.8 72 72 E 13 20 30.01 1016 10 16.0934 0 0
6:52 pm 18:52 Mostly Cloudy 82 27.8 73 22.8 74 74 ENE 9 15 30.01 1016 10 16.0934 0 0
7:52 pm 19:52 Mostly Cloudy 79 26.1 71 21.7 77 77 ENE 8 13 30.02 1017 10 16.0934 0 0
8:52 pm 20:52 Mostly Cloudy 79 26.1 73 22.8 82 82 ENE 9 15 30.02 1017 10 16.0934 0 0
9:52 pm 21:52 Mostly Cloudy 79 26.1 74 23.3 85 85 NE 9 15 30.04 1017 10 16.0934 0 0
10:52 pm 22:52 Mostly Cloudy 78 25.6 74 23.3 87 87 NE 8 13 30.04 1017 10 16.0934 0 0
11:52 pm 23:52 Partly Cloudy 77 25 74 23.3 90 90 NNE 8 13 30.03 1017 10 16.0934 0 0

Powered by AerisWeather